Lapse_Rate
3.5 3.2 3.2 3.1 2.9 2.7 2.4 2.1 1.9 1.8 2.0 1.8 1.5 1.1 0.9 0.6 0.4 -0.0 -0.4 -0.1 0.6 0.9 1.2 1.3 1.5 1.9 2.3 4.7 3.4 3.9 3.7 4.4 4.0 4.1 5.1 5.6 5.6 4.9 6.5 6.3 6.1 6.5 6.5 5.4 4.4 4.1 4.6
3.4 3.2 3.1 3.0 2.7 2.5 2.2 1.8 1.7 1.7 1.6 1.4 1.2 0.7 0.3 0.2 0.0 0.0 -0.2 0.1 0.4 0.7 1.0 1.1 1.7 2.0 4.3 6.3 4.4 3.3 2.5 2.6 4.4 4.6 5.1 5.0 5.0 4.8 5.8 6.1 6.4 6.0 5.9 5.4 4.6 4.4 4.8
3.4 3.2 2.9 2.9 2.7 2.3 1.9 1.9 1.7 1.5 1.3 1.2 0.9 0.5 0.1 -0.4 -0.2 -0.2 0.3 0.5 0.6 0.7 0.9 1.5 2.1 2.9 4.8 3.5 3.9 2.9 3.0 3.6 4.5 4.7 5.1 5.0 5.7 6.4 6.1 6.5 5.4 5.9 6.5 6.5 6.1 5.5 6.3
3.5 3.2 2.8 2.5 2.3 2.1 2.2 1.8 1.5 1.3 1.2 0.9 0.6 0.3 -0.1 -0.4 -0.4 -0.2 -0.1 -0.0 0.4 0.9 1.2 1.9 2.5 3.9 3.8 5.3 3.6 3.6 3.9 5.3 5.1 5.5 6.5 6.1 6.0 6.2 6.2 5.7 5.3 6.5 6.5 6.5 6.5 6.5 6.2
3.6 3.1 2.4 2.1 2.0 2.1 2.0 1.6 1.4 1.2 1.0 0.7 0.4 -0.0 -0.1 -0.3 -0.5 -0.4 -0.3 0.2 0.8 1.2 2.0 2.3 3.7 4.6 4.5 6.0 4.9 4.7 5.1 5.3 5.7 6.4 6.6 6.6 6.4 5.4 6.1 6.5 6.5 6.5 6.5 6.5 6.5 6.5 6.5
3.5 2.7 2.5 2.1 2.0 2.0 1.7 1.4 1.2 1.0 0.8 0.4 0.1 -0.1 -0.5 -0.3 -0.4 -0.6 -0.1 1.3 1.2 1.9 2.9 4.2 5.8 6.1 4.6 5.2 5.4 5.2 5.3 5.1 6.2 5.9 6.3 6.2 3.6 6.5 6.5 6.5 6.5 6.5 6.5 6.5 6.5 6.5 6.5
4.1 3.2 2.7 2.4 2.4 2.0 1.8 1.5 1.2 0.9 0.7 0.3 -0.0 -0.4 -0.7 -0.7 -0.3 -0.3 0.3 1.7 4.0 4.6 5.1 3.1 3.7 4.8 4.5 5.5 6.1 5.8 5.5 6.4 5.7 5.8 6.5 5.9 6.5 6.5 6.5 6.5 6.5 6.5 6.5 6.5 6.5 6.5 6.5
3.9 3.8 3.5 3.1 2.8 2.3 1.9 1.6 1.2 0.9 0.7 0.3 -0.1 -0.5 -0.6 -0.6 -0.4 -0.0 0.3 3.7 4.0 4.3 5.1 3.2 4.0 4.8 5.8 5.5 5.9 6.3 6.1 5.8 5.8 6.5 6.5 6.5 6.5 6.5 6.5 6.5 6.5 6.5 6.5 6.5 6.5 6.5 6.5
4.4 3.9 3.7 3.3 2.8 2.3 1.9 1.5 1.1 1.0 0.8 0.5 -0.0 -0.3 -0.5 -0.5 -0.5 2.0 3.1 3.8 3.3 4.2 5.7 5.0 5.5 5.8 6.6 5.8 5.7 4.8 5.4 5.0 6.5 6.5 6.5 6.5 6.5 6.5 6.5 6.5 6.5 6.5 6.5 6.5 6.5 6.5 6.5
4.2 4.0 3.5 3.1 2.7 2.4 2.0 1.6 1.3 1.2 0.7 0.2 -0.1 -0.6 -0.3 -0.3 3.2 2.1 3.5 3.9 3.6 4.2 6.5 6.5 6.5 6.5 6.6 6.0 6.4 6.0 5.1 5.7 6.4 6.5 6.5 6.5 6.3 6.5 6.5 6.5 6.5 6.5 6.5 6.5 6.5 6.5 6.5
4.2 3.8 3.4 2.9 2.7 2.6 2.3 2.2 1.9 1.5 1.2 0.6 -0.0 -0.8 -0.6 0.0 0.6 3.0 3.8 2.9 3.5 3.9 6.5 6.5 6.4 6.4 6.0 5.9 6.1 6.4 5.8 6.6 6.5 6.5 6.5 6.5 6.5 6.5 6.5 6.5 6.5 6.5 6.5 6.5 6.5 6.5 6.5
4.3 4.0 3.7 3.3 2.9 2.6 2.3 1.9 1.8 1.6 1.1 0.5 -0.4 -0.8 -0.2 1.3 1.1 3.2 2.6 3.0 3.2 6.5 6.5 6.5 6.3 6.5 6.5 6.4 6.4 6.2 6.1 6.4 6.4 6.5 6.5 6.5 5.9 6.5 6.5 6.5 6.5 6.5 6.5 6.5 6.5 6.5 6.5
4.5 4.4 3.9 3.5 3.0 2.5 2.1 1.9 1.7 1.5 0.9 0.4 0.3 0.8 0.9 2.4 3.6 3.1 2.0 3.1 6.5 6.5 6.5 6.5 6.5 6.5 6.5 6.5 6.5 6.5 6.5 6.5 6.5 6.5 6.5 6.5 6.5 6.5 6.2 6.5 6.5 6.5 6.5 6.5 6.5 6.5 6.5
4.6 4.3 3.9 3.5 3.0 2.7 2.2 1.9 1.7 1.4 0.8 1.0 2.0 3.2 3.7 5.0 3.6 2.5 2.7 6.1 6.5 6.5 6.5 6.5 6.5 6.5 6.5 6.5 6.5 6.5 6.5 6.5 6.5 6.5 6.5 6.5 6.5 6.5 6.5 6.5 6.5 6.5 6.5 6.5 6.5 6.5 6.5
5.4 5.1 3.9 3.8 3.4 2.9 2.4 2.0 1.7 1.4 0.8 1.8 2.2 2.3 4.1 4.3 4.1 2.2 3.8 6.5 6.5 6.5 6.5 6.5 6.5 6.5 6.5 6.5 6.5 6.5 6.5 6.5 6.5 6.5 6.5 6.5 6.5 6.5 6.5 6.5 6.5 6.5 6.5 6.5 6.5 6.5 6.5
7.0 6.1 4.8 4.6 4.0 3.4 2.7 2.2 1.7 1.4 1.0 2.1 0.6 1.8 3.3 3.9 3.1 2.8 5.8 6.5 6.5 6.5 6.5 6.5 6.5 6.5 6.5 6.5 6.5 6.5 6.5 6.5 6.5 6.5 6.4 6.5 6.5 6.5 6.5 6.5 6.5 6.5 6.5 6.5 6.5 6.5 6.5
7.9 8.1 7.2 5.7 4.3 3.6 3.0 2.1 1.6 1.1 1.2 1.5 2.3 3.8 4.3 2.5 2.6 3.0 6.5 6.5 6.5 6.5 6.2 6.5 6.5 6.5 6.5 6.5 6.5 6.5 6.5 6.5 6.5 6.5 6.4 6.5 6.5 6.5 6.5 6.5 6.5 6.5 6.5 6.5 6.5 6.5 6.5
8.3 7.9 5.9 4.6 4.1 3.6 2.9 2.1 1.4 0.9 1.4 -0.2 1.8 6.4 3.8 1.6 5.4 5.7 6.5 6.5 6.2 6.4 5.7 6.5 6.5 6.5 6.5 6.5 6.5 6.5 6.5 6.5 6.9 6.3 6.5 6.5 6.5 6.5 6.5 6.5 6.5 6.5 6.5 6.5 6.5 6.5 6.5
8.5 8.3 7.1 5.3 4.2 3.5 2.7 1.9 1.2 1.1 1.2 -0.9 2.7 2.6 2.1 0.9 6.5 6.5 6.4 6.5 6.3 6.5 6.5 6.5 6.5 6.5 6.5 6.5 6.5 6.5 6.5 6.6 6.3 6.5 6.5 6.5 6.5 6.5 6.5 6.5 6.5 6.5 6.5 6.5 6.5 6.5 6.5
8.6 8.7 8.2 7.1 5.0 3.6 2.7 2.2 1.4 0.7 0.9 -0.4 1.2 6.5 2.3 2.5 3.7 6.4 6.5 6.5 6.5 6.0 6.4 6.2 6.5 6.3 6.5 6.5 6.5 6.5 6.5 6.5 5.8 6.1 7.0 6.4 6.5 6.5 6.5 6.5 6.5 6.5 6.5 6.5 6.5 6.5 6.5
8.5 8.4 8.4 8.2 8.1 5.5 4.2 3.2 2.0 1.2 0.4 -0.7 1.1 6.0 5.8 6.5 6.1 6.5 6.4 6.5 6.5 6.5 6.2 5.8 6.5 6.5 6.5 6.5 6.5 6.5 6.5 6.5 6.4 6.5 6.2 6.5 6.5 6.5 6.5 6.5 6.5 6.5 6.5 6.5 6.5 6.5 6.5
8.8 8.9 8.3 7.9 7.4 7.1 5.7 4.4 2.9 2.1 0.8 -2.0 2.4 4.4 3.2 4.8 5.3 6.4 6.5 6.5 6.5 6.5 6.5 6.5 6.5 6.5 6.5 6.5 6.5 6.5 6.5 6.5 6.5 6.5 6.5 6.5 6.5 6.5 6.5 6.5 6.5 6.5 6.5 6.5 6.5 6.5 6.5
8.5 8.5 8.2 8.3 7.4 6.8 5.7 5.8 5.3 4.2 1.0 0.8 2.5 3.3 3.6 6.0 6.1 6.5 6.5 6.5 6.5 6.4 6.6 6.7 6.5 6.5 6.5 6.5 6.3 6.1 6.1 6.2 6.4 6.5 6.5 6.5 6.5 6.5 6.5 6.5 6.5 6.5 6.5 6.5 6.5 6.5 6.5
8.3 8.9 8.3 8.2 8.1 7.6 7.0 6.9 7.0 6.5 4.4 1.3 1.8 1.9 3.6 6.5 6.5 6.5 6.5 6.5 6.5 6.5 6.5 6.3 6.2 6.5 6.5 5.8 5.1 5.3 5.7 6.3 6.3 6.4 6.5 6.5 6.5 6.5 6.5 6.5 6.5 6.5 6.5 6.5 6.5 6.5 6.5
9.1 9.1 9.3 8.4 8.1 8.5 8.0 7.0 7.8 7.6 6.6 2.8 2.2 2.3 3.8 6.5 6.2 6.5 6.4 6.5 5.7 5.4 6.5 6.5 6.8 6.8 5.5 5.6 6.5 6.5 6.5 6.5 6.5 6.5 6.5 6.5 6.5 6.5 6.5 6.5 6.5 6.5 6.5 6.5 6.5 6.5 6.5
9.3 9.3 9.1 8.4 8.4 8.3 8.1 8.2 7.3 7.8 7.5 4.0 3.3 2.8 3.4 4.9 6.3 6.2 6.2 6.4 6.5 6.5 6.5 6.1 6.2 5.4 5.7 6.5 6.5 6.5 6.5 6.5 6.5 6.5 6.5 6.5 6.5 6.5 6.5 6.5 6.5 6.5 6.5 6.8 5.9 6.5 5.2
9.2 8.6 9.0 8.9 8.0 8.5 8.4 8.2 8.2 7.4 8.2 6.3 5.4 5.1 4.3 4.9 5.4 6.4 5.9 6.3 6.0 6.2 6.5 5.8 5.7 5.6 5.6 6.5 6.5 6.5 6.5 6.5 6.5 6.5 6.5 6.5 6.5 6.5 6.5 6.5 6.5 6.5 4.9 5.2 6.5 6.5 2.8
8.8 9.0 8.5 9.1 9.2 8.7 9.1 9.3 8.5 7.7 7.8 7.3 6.4 6.0 5.0 4.4 4.5 6.2 6.7 6.2 5.5 5.5 6.5 5.6 6.1 5.9 6.3 6.5 6.5 6.5 6.5 6.5 6.5 6.5 6.5 6.5 6.5 6.5 6.5 6.5 6.5 3.9 5.8 6.5 5.1 1.7 0.7
8.3 8.3 8.6 8.6 8.4 9.2 9.2 9.1 9.2 7.8 7.9 8.1 6.5 6.7 6.5 6.2 5.4 5.4 5.8 6.3 6.6 7.1 6.5 5.6 6.1 6.2 6.3 6.5 6.5 6.5 6.5 6.5 6.5 6.5 6.5 6.5 6.5 6.5 6.5 6.5 5.3 4.2 4.2 2.7 2.7 4.3 2.3
Wind_Speed
19 19 20 20 20 19 19 20 21 21 21 20 20 19 17 15 12 9 8 9 9 8 8 7 5 2 1 1 8 4 12 10 7 6 6 6 5 6 5 4 2 6 5 5 7 7 7
20 21 21 20 20 20 20 21 21 22 22 22 21 21 20 18 14 11 9 9 9 9 8 6 4 1 1 3 2 12 9 7 4 4 4 5 6 6 3 4 4 2 5 8 7 8 5
19 20 20 20 20 20 21 21 22 23 23 23 22 22 22 20 16 12 9 9 9 8 8 6 3 2 1 10 3 12 9 6 4 4 4 4 3 3 1 4 3 3 6 8 8 5 7
18 19 20 21 21 21 21 22 23 23 24 24 24 24 23 22 19 14 10 8 7 7 7 5 3 1 6 2 8 7 4 3 3 4 1 1 4 3 3 2 7 3 2 3 4 6 2
18 20 21 21 21 21 22 23 23 24 25 26 26 25 25 23 21 17 12 7 4 6 3 5 2 3 7 1 5 6 5 6 5 2 1 1 2 3 1 3 4 2 4 6 8 3 3
20 19 20 21 21 22 23 24 24 24 25 26 27 27 26 25 21 17 11 1 7 6 2 2 3 2 4 5 4 7 3 8 3 4 3 2 3 1 1 4 6 6 5 5 6 3 3
19 19 20 21 22 23 24 24 24 25 26 26 27 29 28 26 24 15 2 3 2 1 3 8 6 3 4 1 3 2 5 5 4 3 5 3 3 10 12 11 3 2 4 5 5 4 5
17 19 20 21 22 23 24 25 25 25 26 26 28 29 29 28 27 16 3 3 2 1 7 6 6 5 0 3 4 2 5 6 4 6 3 1 9 12 7 7 7 7 7 9 9 8 7
16 18 20 21 23 24 25 25 26 26 27 27 28 29 30 28 30 2 3 1 1 3 1 5 3 3 4 6 4 8 9 5 4 6 7 7 6 3 8 6 6 10 7 6 10 5 4
17 18 20 22 23 24 26 26 27 27 28 28 28 29 27 30 2 2 2 4 2 2 4 2 2 3 3 3 0 1 6 4 3 8 7 7 10 14 6 4 9 8 10 11 7 2 5
18 20 21 22 24 25 26 27 28 28 29 28 29 27 24 13 3 3 2 4 1 3 3 2 1 3 1 4 3 3 1 2 4 3 3 8 3 4 7 11 9 9 8 7 4 4 2
19 21 22 23 24 26 27 28 29 29 30 31 30 25 14 2 0 0 5 2 3 4 4 2 2 1 2 1 1 2 3 3 1 3 4 11 3 3 6 2 6 2 3 6 4 3 4
20 21 23 24 26 27 28 30 30 31 32 32 31 23 3 2 1 5 2 3 4 3 5 8 3 1 2 0 2 3 3 2 4 2 3 5 5 4 7 5 1 3 5 2 3 0 7
21 22 24 26 28 29 30 31 32 32 33 32 26 11 3 1 4 2 2 4 3 3 3 4 5 4 3 8 5 0 2 4 9 3 3 3 7 3 1 9 6 6 7 5 6 4 4
21 23 25 26 29 30 32 33 34 33 32 28 13 3 2 4 4 3 4 5 1 4 5 6 6 5 4 5 5 7 3 3 5 10 2 5 5 6 3 4 7 2 5 8 4 2 1
21 23 24 26 30 32 34 36 36 35 32 19 2 2 4 16 3 3 4 5 4 4 5 4 4 7 6 8 7 8 4 4 5 7 4 2 8 5 6 2 1 5 2 1 2 5 7
23 23 25 27 30 33 35 38 38 37 33 12 3 3 4 20 2 5 4 3 4 6 5 6 2 4 3 5 3 3 4 4 6 4 4 5 4 5 4 4 6 3 4 6 3 4 13
22 24 26 29 30 33 36 39 40 36 29 8 2 3 5 6 4 3 3 3 6 5 7 6 4 3 3 6 3 3 2 4 10 6 5 4 4 8 6 13 3 9 9 8 4 9 4
22 24 25 27 30 33 36 40 42 37 24 1 3 2 5 4 4 3 4 5 6 6 6 6 4 5 3 1 3 3 4 5 10 6 4 4 3 5 14 0 5 8 6 5 5 6 6
25 27 31 30 30 32 36 39 42 40 28 3 3 3 5 5 2 4 4 5 3 6 4 4 4 7 6 3 2 3 3 4 10 6 17 6 3 5 7 8 8 6 6 8 3 4 7
26 28 27 29 30 31 34 37 42 43 28 4 4 2 2 3 5 5 4 4 4 7 5 8 4 5 2 3 4 3 2 5 4 8 5 2 4 2 10 8 3 8 7 11 6 8 3
25 27 26 27 29 32 33 34 39 43 18 5 3 3 3 2 3 4 6 5 4 3 3 3 3 5 2 3 5 10 3 1 5 4 3 4 4 9 11 9 5 6 10 4 7 6 4
24 24 26 27 28 29 33 32 33 38 17 4 3 2 3 6 3 3 2 3 5 5 2 1 3 4 5 7 6 10 11 9 11 7 10 5 3 2 5 5 9 3 6 5 3 7 5
23 24 25 24 26 27 28 29 27 28 19 3 1 2 3 2 4 3 2 3 4 3 3 6 4 2 4 8 10 8 8 11 8 11 11 4 2 4 3 2 4 3 4 6 7 4 7
22 23 23 24 24 25 25 26 26 21 17 4 2 3 2 3 1 3 4 2 5 5 2 3 2 4 7 5 3 5 3 2 4 8 8 1 4 1 2 2 2 2 2 2 2 1 2
21 22 22 20 23 23 24 23 23 22 15 4 3 2 3 4 1 1 1 1 1 3 5 3 5 6 4 1 2 1 1 2 1 1 8 8 6 3 2 3 5 3 3 5 2 4 3
21 21 21 21 22 21 21 21 20 20 20 3 1 3 3 3 2 1 1 2 1 0 2 4 6 6 4 3 1 1 1 3 2 3 5 5 4 3 2 2 4 4 4 2 2 4 3
20 20 21 21 20 20 21 20 19 19 18 4 2 1 3 1 3 1 1 1 1 1 1 4 2 3 3 4 2 2 2 2 3 2 2 2 2 1 2 3 3 0 2 2 3 4 4
20 22 22 22 22 19 19 19 17 18 13 5 1 1 2 2 3 1 3 2 3 3 2 1 1 2 2 1 1 2 3 3 2 0 4 1 1 1 3 2 2 2 3 2 4 3 4
Wind_Direction
25 23 19 18 16 14 12 10 7 4 3 1 1 358 353 347 337 315 295 280 265 250 242 242 250 262 163 131 253 166 140 140 132 156 171 174 167 177 191 211 179 234 254 254 249 282 241
26 22 18 17 14 13 11 8 5 1 359 358 357 355 352 348 338 321 302 286 265 247 239 228 235 134 180 242 184 153 135 129 177 157 183 168 198 197 228 239 179 255 255 262 271 249 232
24 20 16 14 13 10 9 6 1 358 356 355 355 353 350 348 343 328 305 287 273 250 234 222 199 201 210 241 166 153 145 174 173 165 171 218 189 173 158 286 296 265 303 307 244 224 227
19 17 16 13 10 8 5 3 358 356 354 353 351 350 348 348 346 338 317 289 264 240 222 203 170 202 242 270 137 138 176 147 163 197 209 189 156 153 180 280 349 310 7 317 288 140 207
20 14 13 11 9 6 2 0 357 355 353 351 349 347 346 345 346 341 328 302 235 198 171 157 125 166 267 114 143 203 148 150 122 84 51 82 93 187 114 128 350 320 246 219 311 199 128
23 13 11 9 7 3 1 359 357 355 353 349 346 344 342 340 341 341 336 3 120 123 146 172 256 3 271 219 172 163 154 136 133 105 55 82 44 178 48 126 226 201 223 243 237 210 139
19 12 9 6 4 1 359 357 354 352 350 347 344 341 339 337 335 338 12 88 33 30 237 193 192 229 115 117 76 114 141 121 102 96 177 216 155 219 202 206 192 144 215 254 259 215 232
13 11 8 5 1 359 356 353 351 349 347 344 342 339 336 334 331 330 151 91 78 204 298 245 250 289 321 186 97 131 111 155 142 197 168 99 236 238 198 215 232 259 271 273 287 258 180
14 10 6 3 359 356 354 351 348 346 344 341 339 336 334 331 323 24 79 69 32 127 227 304 193 168 192 154 191 200 146 145 173 182 202 194 228 51 184 203 209 235 218 244 246 302 247
15 9 6 2 358 355 352 350 347 344 340 337 334 332 330 329 25 332 59 316 15 96 39 277 39 18 42 107 226 321 173 147 209 214 208 237 246 249 199 245 184 254 204 238 254 238 261
12 7 4 2 359 355 353 350 347 343 338 334 331 327 322 323 288 81 246 314 78 65 10 50 62 273 81 140 169 27 161 48 217 221 147 247 268 208 218 232 175 247 195 202 208 205 331
12 8 5 3 1 357 354 351 347 343 338 333 329 324 318 138 137 324 316 355 62 51 261 34 65 26 95 201 167 90 97 49 230 258 225 245 252 253 216 199 182 143 111 45 49 93 258
14 8 5 2 1 357 355 351 347 344 340 336 332 334 178 253 184 318 356 60 50 142 346 343 28 253 253 310 266 130 131 169 212 262 276 326 238 247 175 221 252 140 100 293 303 187 233
16 11 7 4 2 359 357 353 349 346 342 337 332 335 216 236 312 11 78 61 175 61 335 328 329 324 87 10 26 31 78 10 36 328 329 278 322 191 359 211 188 203 170 186 218 201 249
18 14 12 8 6 3 1 356 351 347 343 339 332 331 349 313 327 89 83 67 113 16 309 333 313 51 359 21 18 26 71 49 51 14 50 339 271 330 225 233 156 184 184 234 283 201 19
18 15 12 6 5 4 2 358 354 348 345 349 58 10 327 342 357 70 77 107 94 9 329 342 29 39 12 356 29 18 330 11 1 39 261 344 291 260 325 6 337 187 179 154 221 220 234
12 14 10 6 7 5 3 1 357 352 347 352 47 50 296 341 55 50 90 78 109 18 33 34 66 37 68 348 347 317 339 55 17 344 70 1 226 281 313 197 229 300 250 227 218 203 249
16 14 13 10 8 5 3 3 0 357 350 36 58 50 317 343 51 36 61 32 41 2 12 26 80 59 31 8 330 267 264 72 36 360 12 4 291 284 227 279 310 66 22 6 282 267 251
14 15 14 13 10 7 4 1 0 1 6 62 68 348 337 34 73 25 357 55 51 21 20 16 52 50 28 107 311 277 318 48 38 27 21 319 296 323 308 127 47 45 53 5 305 281 273
29 26 20 19 15 11 8 3 2 3 5 75 69 40 351 35 23 81 29 23 51 28 64 355 60 54 25 331 303 303 320 330 348 323 314 185 237 216 257 302 336 326 23 358 266 268 309
25 23 20 16 20 16 11 7 5 5 4 76 31 83 179 20 14 48 72 29 22 7 13 20 98 76 79 298 318 250 335 328 302 304 335 75 254 284 288 300 337 48 19 25 44 351 223
22 20 20 20 17 20 17 13 11 6 11 73 95 93 7 27 22 59 25 25 45 341 320 32 33 323 300 232 236 289 274 156 238 333 39 5 286 317 294 283 174 81 27 30 32 3 69
23 22 19 23 22 20 19 19 18 16 27 68 354 16 92 350 32 77 44 55 23 357 317 44 335 340 299 289 277 261 248 239 244 269 283 277 227 92 264 143 125 105 9 46 82 33 337
21 16 19 20 23 22 23 19 24 25 39 90 347 91 70 49 70 80 61 54 1 356 280 306 309 262 261 316 294 274 250 252 240 252 228 251 323 228 264 327 234 88 68 73 99 47 20
21 20 15 15 20 20 23 23 19 24 32 62 348 73 76 101 118 88 51 52 326 344 326 272 261 234 285 289 323 342 359 140 66 65 80 212 245 340 100 72 26 298 21 4 48 203 345
18 15 16 14 16 17 17 20 19 16 18 60 18 76 81 110 275 166 115 99 4 328 329 269 305 300 350 294 310 104 286 37 25 52 42 26 17 111 37 148 216 223 328 326 111 279 271
11 14 11 14 10 9 9 10 14 9 10 52 42 72 80 97 251 82 176 178 145 273 249 295 322 338 8 1 343 322 4 333 53 38 340 346 2 75 9 118 293 252 292 337 90 274 281
8 5 8 4 2 4 359 360 5 3 354 8 356 129 102 70 290 215 102 218 45 135 166 289 2 355 350 33 10 307 36 62 85 125 40 102 64 346 49 69 323 277 340 179 216 297 241
7 4 1 359 354 353 354 353 354 351 346 345 303 130 125 111 239 323 266 247 196 204 194 291 234 257 257 1 352 88 28 37 121 334 34 352 178 261 166 237 241 291 184 200 153 233 289